{"data":{"norad_id":63518,"epoch":"2026-09-20T14:25:17.348736Z","epoch_age_seconds":146798,"freshness":"FRESH","line1":"1 63518U 25071AB  26263.60089524  .00012730  00000+0  38732-3 0  9999","line2":"2 63518  53.1609 309.4310 0001198  90.4783 269.6357 15.34393780 82684","mean_motion":15.3439378,"eccentricity":0.0001198,"inclination_deg":53.1609,"raan_deg":309.431,"arg_perigee_deg":90.4783,"mean_anomaly_deg":269.6357,"bstar":0.00038732,"rev_number":8268,"period_min":93.8481385137,"perigee_km":461.90219254482,"apogee_km":463.54126229591,"semimajor_km":6840.8587274204,"source":"CELESTRAK","updated_at":"2026-09-21T09:00:35.018504Z"}}